Flag for Canada Weather past 2 weeks in Summerside, Pr.Edward I, Canada

Now
23 °F

Cold.


Feels Like: 6 °F
Forecast: 14 / 24 °F
Wind: 29 mph from Northeast

Location: Summerside Airport

Current Time: Jan 28, 2015 at 1:04:47 AM

Latest Report: Jan 28, 2015 at 12:00 AM


Visibility: N/A

Pressure: 29.59 "Hg

Humidity: 91%

Dew point: 21 °F

Location of SummersideLocation

Historic Weather in Summerside — Graph

°F

Summerside temperature yesterday

Maximum temperature yesterday: 24 °F (at 10:00 PM)
Minimum temperature yesterday: 11 °F (at 12:00 AM)
Average temperature yesterday: 18 °F

Past Weeks' High & Low Weather Summary

 TemperatureHumidityPressure
High45 °F (Jan 19, 2:00 PM)100% (Jan 24, 7:00 PM)30.57 "Hg (Jan 24, 7:00 PM)
Low-7 °F (Jan 18, 2:00 AM)53% (Jan 17, 5:00 PM)28.52 "Hg (Jan 25, 3:00 AM)
Average19 °F77%29.91 "Hg
* Reported Midnight between Jan 12 and Jan 13 — Midnight between Jan 27 and Jan 28, Summerside, Weather by CustomWeather, © 2014

Note: Actual official high and low records may vary slightly from our data, if they occured in-between our weather recording intervals... More about our weather records

Advertising

Summerside weather history for previous 24 hours

 ConditionsComfort  
Time TempWeatherWind HumidityBarometerVisibility
12:00 AM
Jan 28
23 °FCold.29 mph91%29.59 "HgN/A
11:00 PM
Jan 27
23 °FCold.32 mph91%29.59 "HgN/A
10:00 PM24 °FCold.36 mph92%29.60 "HgN/A
9:00 PM23 °FCold.39 mph91%29.64 "HgN/A
8:00 PM23 °FCold.36 mph90%29.67 "HgN/A
7:00 PM23 °FCold.36 mph88%29.72 "HgN/A
6:00 PM22 °FCold.37 mph89%29.72 "HgN/A
5:00 PM22 °FCold.41 mph90%29.74 "HgN/A
4:00 PM21 °FCold.43 mph91%29.75 "HgN/A
3:00 PM20 °FCold.39 mph91%29.81 "HgN/A
2:00 PM19 °FCold.40 mph90%29.86 "HgN/A
1:00 PM19 °FCold.39 mph90%29.95 "HgN/A
12:00 PM19 °FCold.37 mph90%29.98 "HgN/A
11:00 AM18 °FCold.41 mph90%29.98 "HgN/A
10:00 AM17 °FCold.45 mph89%29.97 "HgN/A
9:00 AM16 °FCold.40 mph88%30.05 "HgN/A
8:00 AM17 °FCold.31 mph78%30.15 "HgN/A
7:00 AM16 °FCold.31 mph72%30.19 "HgN/A
6:00 AM16 °FCold.28 mph75%30.21 "HgN/A
5:00 AM15 °FCold.22 mph76%30.27 "HgN/A
4:00 AM14 °FCold.17 mph75%30.32 "HgN/A
3:00 AM12 °FCold.21 mph71%30.32 "HgN/A
2:00 AM12 °FCold.20 mph69%30.33 "HgN/A
1:00 AM11 °FCold.15 mph66%30.35 "HgN/A
Weather by CustomWeather, © 2014

See weather overviewHow to use our weather pages